Location: Elm Mott Branch
(32.1549°N, 97.5139°W)
Time: 10:53:47
(UTC+00:00)

IGS 5A - Pass Details

Date: 18 November 2025
Orbit: 549 x 559 km, 97.4° (Epoch: 02 December)

Event Time Altitude Azimuth Distance (km) Brightness Sun altitude
Rises 12:22:03 0° 10° (N) 2,728 6.8 -8.8°
Reaches altitude 10° 12:24:11 10° 10° (N) 1,832 5.9 -8.4°
Maximum altitude 12:28:09 85° 283° (WNW) 560 3.3 -7.6°
Drops below altitude 10° 12:32:06 10° 194° (SSW) 1,826 6.0 -6.8°
Sets 12:34:13 0° 194° (SSW) 2,718 6.9 -6.3°
